Regional Weather Roundup
Issued by NWS

Home | Current Version | Previous Version | Graphics & Text | Print | Product List | Glossary On
Versions: 1 2 3 4 5 6 7 8 9 10 11 12 13 14 15 16 17 18 19 20 21 22 23 24 25 26 27 28 29 30 31 32 33 34 35 36 37 38 39 40 41 42 43 44 45 46 47 48 49 50
000
ASUS43 KLMK 231610
RWRKY
KENTUCKY REGIONAL WEATHER ROUNDUP
NATIONAL WEATHER SERVICE LOUISVILLE KY
1200 PM EDT MON APR 23 2018

NOTE "FAIR" INDICATES FEW OR NO CLOUDS BELOW 12,000 FEET
WITH NO SIGNIFICANT WEATHER AND/OR OBSTRUCTIONS TO VISIBILITY.

KYZ001>023-026-027-061>063-070>075-231700-
WESTERN AND SOUTH CENTRAL KENTUCKY

CITY           SKY/WX    TMP DP  RH WIND       PRES   REMARKS
PADUCAH        RAIN      61  59  93 E8        29.88R FOG
HENDERSON      CLOUDY    62  56  80 E12       29.96S
OWENSBORO      CLOUDY    62  54  74 SE17      29.97R
HOPKINSVILLE   DRIZZLE   61  61 100 SE9       29.92R
BOWLING GREEN  CLOUDY    64  57  78 E15       29.97S
GLASGOW        CLOUDY    64  54  70 SE14G22   29.99S
$$

KYZ024-025-028>034-038-045-046-053-231700-
NORTH CENTRAL KENTUCKY

CITY           SKY/WX    TMP DP  RH WIND       PRES   REMARKS
LOUISVILLE/SDF LGT RAIN  57  54  89 E10       30.05S FOG
LOUISVILLE/LOU RAIN      57  56  96 E13       30.06S FOG
FORT KNOX      CLOUDY    57  57 100 E12       30.03S
$$

KYZ035>037-039>044-047>052-055>060-089>105-231700-
NORTHEAST KENTUCKY

CITY           SKY/WX    TMP DP  RH WIND       PRES   REMARKS
LEXINGTON      RAIN      56  53  90 E9G21     30.09S
COVINGTON      RAIN      54  50  86 E13       30.13R FOG
FRANKFORT      LGT RAIN  55  52  89 E9        30.07F FOG
$$

KYZ054-064>069-076>088-106>120-231700-
SOUTHEAST KENTUCKY

CITY           SKY/WX    TMP DP  RH WIND       PRES   REMARKS
JACKSON        LGT RAIN  54  51  90 MISG      30.11F
LONDON         PTSUNNY   60  32  34 SE12G23   30.07F
SOMERSET       CLOUDY    61  54  77 SE7       30.06F
MIDDLESBORO    LGT RAIN  57  50  77 SE3       30.13R
MONTICELLO     CLOUDY    61  52  72 SE18G26   30.05S
$$





USA.gov is the U.S. government's official web portal to all federal, state and local government web resources and services.